This demonstration page uses our WeatherBlox Daily Observations layout. Learn more.

Left ArrowRight Arrow

38.88101, -77.10428

Hourly Observations for September 19, 2022

Temp ( °F °C ) Dew Point ( °F °C ) Humidity (%) Winds ( mph kmh ) Pressure ( in mb ) Visibility ( mi km ) Precip ( " mm )
12:52 am 00:52 Mostly Clear 71 21.7 66 18.9 84 84 S 5 7 30.03 1017 10 16 0.00 0.00
1:52 am 01:52 Mostly Clear 72 22.2 65 18.3 79 79 S 3 6 30.02 1017 10 16 0.00 0.00
2:52 am 02:52 Mostly Clear 71 21.7 66 18.9 84 84 S 7 11 30.01 1016 10 16 0.00 0.00
3:52 am 03:52 Partly Cloudy 70 21.1 64 17.8 81 81 SW 3 6 30.01 1016 10 16 0.00 0.00
4:52 am 04:52 Partly Cloudy 69 20.6 62 16.7 78 78 SW 5 7 30.00 1016 10 16 0.00 0.00
5:52 am 05:52 Partly Cloudy 68 20 63 17.2 84 84 SW 6 9 30.01 1016 10 16 0.00 0.00
6:52 am 06:52 Partly Cloudy 68 20 62 16.7 81 81 SW 5 7 30.01 1016 10 16 0.00 0.00
7:52 am 07:52 Partly Cloudy 69 20.6 64 17.8 84 84 SSW 3 6 30.01 1016 10 16 0.00 0.00
8:52 am 08:52 Mostly Sunny 72 22.2 66 18.9 82 82 SSW 5 7 30.02 1017 10 16 0.00 0.00
9:52 am 09:52 Mostly Sunny 74 23.3 67 19.4 79 79 S 12 19 30.01 1016 10 16 0.00 0.00
10:52 am 10:52 Mostly Sunny 78 25.6 68 20 71 71 S 9 15 30.00 1016 10 16 0.00 0.00
11:52 am 11:52 Partly Cloudy 82 27.8 68 20 63 63 S 12 19 29.98 1015 10 16 0.00 0.00
12:52 pm 12:52 Partly Cloudy 85 29.4 64 17.8 50 50 S 12 19 29.96 1015 10 16 0.00 0.00
1:52 pm 13:52 Mostly Cloudy 88 31.1 62 16.7 42 42 S 12 19 29.95 1014 10 16 0.00 0.00
2:52 pm 14:52 Mostly Cloudy 85 29.4 59 15 42 42 WSW 16 26 29.93 1014 10 16 0.00 0.00
3:52 pm 15:52 Mostly Cloudy 84 28.9 60 15.6 45 45 SW 10 17 29.90 1013 10 16 0.00 0.00
4:52 pm 16:52 Mostly Cloudy 84 28.9 61 16.1 46 46 WSW 10 17 29.90 1013 10 16 0.00 0.00
5:52 pm 17:52 Partly Cloudy 85 29.4 62 16.7 46 46 WSW 13 20 29.90 1012 10 16 0.00 0.00
6:52 pm 18:52 Mostly Sunny 82 27.8 62 16.7 51 51 SW 12 19 29.89 1012 10 16 0.00 0.00
7:52 pm 19:52 Partly Cloudy 79 26.1 63 17.2 58 58 SSW 8 13 29.89 1012 10 16 0.00 0.00
8:52 pm 20:52 Mostly Clear 78 25.6 63 17.2 60 60 SW 6 9 29.91 1013 10 16 0.00 0.00
9:52 pm 21:52 Clear 78 25.6 64 17.8 62 62 WNW 7 11 29.91 1013 10 16 0.00 0.00
10:52 pm 22:52 Clear 77 25 64 17.8 64 64 W 7 11 29.92 1013 10 16 0.00 0.00
11:52 pm 23:52 Partly Cloudy 75 23.9 64 17.8 69 69 SSW 5 7 29.92 1013 10 16 0.00 0.00

Powered by AerisWeather